GW7165 Weather Reports


Display with metric or nautical units.
time (UTC)temp
F
wind
direction
speed
MPH
gust
MPH
rain 1hr
in
rain 24hr
in
rain mn
in
humidity
%
barometer
mb
20260906233023 98 131 3.0 3.0 0.00 0.00 0.00 42 1009.9
20260906232518 98 98 3.0 6.0 0.00 0.00 0.00 41 1009.8
20260906232014 98 184 3.0 3.0 0.00 0.00 0.00 41 1009.7
20260906231508 98 117 3.0 6.0 0.00 0.00 0.00 41 1009.9
20260906231003 99 122 2.0 2.0 0.00 0.00 0.00 40 1009.9
20260906230501 99 83 2.0 3.0 0.00 0.00 0.00 40 1009.8
20260906230000 99 168 1.0 1.0 0.00 0.00 0.00 41 1009.7
20260906225455 99 177 2.0 2.0 0.00 0.00 0.00 41 1009.8
20260906224952 99 185 4.0 5.0 0.00 0.00 0.00 41 1010.0
20260906224448 99 144 2.0 2.0 0.00 0.00 0.00 39 1010.0
20260906223943 100 158 2.0 3.0 0.00 0.00 0.00 39 1009.9
20260906223439 100 127 3.0 3.0 0.00 0.00 0.00 39 1009.9
20260906222937 101 179 2.0 2.0 0.00 0.00 0.00 39 1009.7
20260906222432 99 140 3.0 3.0 0.00 0.00 0.00 39 1009.9
20260906221929 99 171 1.0 2.0 0.00 0.00 0.00 39 1010.0
20260906221428 99 155 4.0 6.0 0.00 0.00 0.00 40 1010.1
20260906220924 100 118 1.0 1.0 0.00 0.00 0.00 39 1010.1
20260906220420 99 122 3.0 3.0 0.00 0.00 0.00 39 1010.0
20260906215918 100 135 1.0 1.0 0.00 0.00 0.00 39 1009.9
20260906215413 100 94 2.0 2.0 0.00 0.00 0.00 39 1010.0
20260906214912 101 132 3.0 3.0 0.00 0.00 0.00 38 1010.0
20260906214411 100 12 3.0 5.0 0.00 0.00 0.00 39 1010.1
20260906213910 100 60 3.0 6.0 0.00 0.00 0.00 38 1010.0
20260906213410 99 78 2.0 3.0 0.00 0.00 0.00 40 1010.2
20260906212908 100 51 3.0 3.0 0.00 0.00 0.00 41 1010.2
20260906212404 101 138 3.0 3.0 0.00 0.00 0.00 40 1010.3
20260906211903 100 122 4.0 6.0 0.00 0.00 0.00 41 1010.6
20260906211358 101 134 3.0 5.0 0.00 0.00 0.00 40 1010.5
20260906210853 100 148 2.0 2.0 0.00 0.00 0.00 40 1010.5
20260906210349 99 84 2.0 3.0 0.00 0.00 0.00 41 1010.6
20260906205843 98 115 1.0 1.0 0.00 0.00 0.00 42 1010.6
20260906205340 99 134 3.0 6.0 0.00 0.00 0.00 42 1010.6
20260906204835 99 98 3.0 5.0 0.00 0.00 0.00 42 1010.9
20260906204334 98 128 3.0 3.0 0.00 0.00 0.00 42 1010.7
20260906203833 98 96 2.0 3.0 0.00 0.00 0.00 43 1010.8
20260906203329 98 80 5.0 7.0 0.00 0.00 0.00 43 1011.1
20260906202826 100 120 3.0 5.0 0.00 0.00 0.00 41 1010.8
20260906202326 99 91 3.0 5.0 0.00 0.00 0.00 43 1011.1
20260906201820 98 106 3.0 3.0 0.00 0.00 0.00 42 1011.1
20260906201320 98 94 1.0 2.0 0.00 0.00 0.00 44 1011.3
20260906200815 100 119 5.0 7.0 0.00 0.00 0.00 42 1011.0
20260906200312 99 68 4.0 5.0 0.00 0.00 0.00 42 1011.1
20260906195806 98 106 3.0 3.0 0.00 0.00 0.00 42 1011.2
20260906195306 98 155 2.0 2.0 0.00 0.00 0.00 44 1011.3
20260906194758 98 209 2.0 2.0 0.00 0.00 0.00 44 1011.3
20260906194255 99 137 4.0 7.0 0.00 0.00 0.00 42 1011.3
20260906193755 97 117 3.0 6.0 0.00 0.00 0.00 44 1011.5
20260906193249 99 102 6.0 8.0 0.00 0.00 0.00 43 1011.8
20260906192745 98 138 2.0 3.0 0.00 0.00 0.00 43 1011.6
20260906192240 98 59 2.0 2.0 0.00 0.00 0.00 44 1011.8
20260906191739 97 109 6.0 7.0 0.00 0.00 0.00 45 1011.5
20260906191234 96 126 3.0 3.0 0.00 0.00 0.00 46 1011.7
20260906190734 98 73 3.0 5.0 0.00 0.00 0.00 45 1011.9
20260906190228 98 119 1.0 2.0 0.00 0.00 0.00 45 1011.9
20260906185727 97 56 2.0 5.0 0.00 0.00 0.00 46 1012.0
20260906185226 98 177 3.0 5.0 0.00 0.00 0.00 45 1012.0
20260906184721 98 80 4.0 6.0 0.00 0.00 0.00 45 1012.1
20260906184216 98 191 2.0 3.0 0.00 0.00 0.00 46 1012.2
20260906183712 98 158 3.0 7.0 0.00 0.00 0.00 45 1012.1
20260906183208 98 187 4.0 6.0 0.00 0.00 0.00 45 1012.2
20260906182708 97 43 4.0 6.0 0.00 0.00 0.00 47 1012.1
20260906182204 98 112 5.0 6.0 0.00 0.00 0.00 44 1012.2
20260906181659 97 188 4.0 6.0 0.00 0.00 0.00 48 1012.1
20260906181156 98 60 1.0 3.0 0.00 0.00 0.00 47 1012.2
20260906180655 97 51 4.0 6.0 0.00 0.00 0.00 46 1012.6
20260906180151 97 181 3.0 5.0 0.00 0.00 0.00 46 1012.8
20260906175648 96 82 4.0 5.0 0.00 0.00 0.00 49 1012.9
20260906175144 96 124 4.0 6.0 0.00 0.00 0.00 49 1012.9
20260906174642 95 130 3.0 3.0 0.00 0.00 0.00 50 1012.8
20260906174137 95 191 3.0 3.0 0.00 0.00 0.00 49 1013.1
20260906173632 95 128 3.0 3.0 0.00 0.00 0.00 50 1013.0
20260906173128 93 93 0.0 1.0 0.00 0.00 0.00 52 1013.2
20260906172627 95 112 2.0 2.0 0.00 0.00 0.00 52 1013.2
20260906172123 96 135 4.0 6.0 0.00 0.00 0.00 50 1013.4
20260906171622 94 147 1.0 2.0 0.00 0.00 0.00 52 1013.5
20260906171118 93 157 4.0 6.0 0.00 0.00 0.00 53 1013.2
20260906170614 95 117 2.0 2.0 0.00 0.00 0.00 52 1013.6
20260906170113 95 154 1.0 2.0 0.00 0.00 0.00 53 1013.7
20260906165610 94 171 1.0 1.0 0.00 0.00 0.00 53 1013.6
20260906165105 95 152 2.0 2.0 0.00 0.00 0.00 54 1013.8
20260906164604 94 107 3.0 3.0 0.00 0.00 0.00 53 1013.6
20260906164100 93 21 1.0 1.0 0.00 0.00 0.00 56 1013.8
20260906163555 91 120 1.0 1.0 0.00 0.00 0.00 58 1013.7
20260906163051 93 149 3.0 5.0 0.00 0.00 0.00 56 1013.6
20260906162548 92 127 4.0 6.0 0.00 0.00 0.00 55 1013.6
20260906162043 93 56 3.0 3.0 0.00 0.00 0.00 56 1013.7
20260906161538 94 207 3.0 6.0 0.00 0.00 0.00 55 1013.4
20260906161036 93 42 1.0 1.0 0.00 0.00 0.00 57 1013.7
20260906160536 91 175 4.0 5.0 0.00 0.00 0.00 60 1013.7
20260906160034 91 134 1.0 1.0 0.00 0.00 0.00 60 1013.9
20260906155532 91 119 1.0 2.0 0.00 0.00 0.00 62 1013.9
20260906155028 91 101 3.0 3.0 0.00 0.00 0.00 61 1013.4
20260906154524 90 129 1.0 1.0 0.00 0.00 0.00 62 1013.8
20260906154022 91 157 2.0 2.0 0.00 0.00 0.00 62 1013.8
20260906153521 91 121 2.0 5.0 0.00 0.00 0.00 62 1013.7
20260906153017 90 106 2.0 2.0 0.00 0.00 0.00 63 1013.8
20260906152510 88 135 2.0 2.0 0.00 0.00 0.00 67 1013.8
20260906152010 87 150 1.0 1.0 0.00 0.00 0.00 68 1013.6
20260906151506 89 181 2.0 3.0 0.00 0.00 0.00 66 1013.5
20260906151001 88 147 3.0 5.0 0.00 0.00 0.00 67 1013.5
20260906150456 87 80 2.0 2.0 0.00 0.00 0.00 68 1013.4
20260906145955 88 50 1.0 2.0 0.00 0.00 0.00 67 1013.5
20260906145450 88 116 2.0 3.0 0.00 0.00 0.00 67 1013.4
20260906144949 87 131 1.0 1.0 0.00 0.00 0.00 69 1013.4
20260906144445 87 81 3.0 3.0 0.00 0.00 0.00 70 1013.3
20260906143940 86 114 2.0 2.0 0.00 0.00 0.00 70 1013.3
20260906143435 86 122 2.0 2.0 0.00 0.00 0.00 70 1013.5
20260906142931 86 129 2.0 2.0 0.00 0.00 0.00 72 1013.5
20260906142431 85 139 1.0 2.0 0.00 0.00 0.00 73 1013.4
20260906141926 85 89 1.0 1.0 0.00 0.00 0.00 73 1013.5
20260906141420 86 127 1.0 1.0 0.00 0.00 0.00 72 1013.3
20260906140920 85 159 1.0 1.0 0.00 0.00 0.00 73 1013.2
20260906140415 84 125 2.0 2.0 0.00 0.00 0.00 74 1013.1
20260906135913 84 105 2.0 2.0 0.00 0.00 0.00 74 1013.1
20260906135412 84 121 2.0 2.0 0.00 0.00 0.00 74 1013.2
20260906134908 84 118 2.0 2.0 0.00 0.00 0.00 74 1013.2
20260906134403 83 132 1.0 1.0 0.00 0.00 0.00 76 1013.1
20260906133857 83 133 1.0 2.0 0.00 0.00 0.00 76 1013.1
20260906133353 83 134 1.0 1.0 0.00 0.00 0.00 76 1013.1
20260906132849 82 116 1.0 1.0 0.00 0.00 0.00 78 1013.4
20260906132344 81 71 1.0 1.0 0.00 0.00 0.00 80 1013.2
20260906131840 80 145 0.0 1.0 0.00 0.00 0.00 81 1013.2
20260906131335 80 158 0.0 1.0 0.00 0.00 0.00 82 1013.2
20260906130831 80 131 1.0 1.0 0.00 0.00 0.00 82 1013.0
20260906130330 79 158 0.0 0.0 0.00 0.00 0.00 83 1013.0
20260906125829 79 156 1.0 1.0 0.00 0.00 0.00 83 1013.0
20260906125326 79 135 1.0 1.0 0.00 0.00 0.00 83 1013.0
20260906124821 79 140 1.0 2.0 0.00 0.00 0.00 84 1012.8
20260906124317 79 154 0.0 0.0 0.00 0.00 0.00 84 1012.9
20260906123816 78 154 0.0 0.0 0.00 0.00 0.00 84 1012.9
20260906123312 78 119 1.0 1.0 0.00 0.00 0.00 84 1012.8
20260906122811 78 150 0.0 0.0 0.00 0.00 0.00 85 1012.8
20260906122306 78 142 0.0 1.0 0.00 0.00 0.00 85 1013.2
20260906121803 78 150 0.0 0.0 0.00 0.00 0.00 85 1012.8
20260906121258 78 159 0.0 1.0 0.00 0.00 0.00 85 1012.8
20260906120755 78 151 0.0 0.0 0.00 0.00 0.00 85 1012.7
20260906120251 78 153 0.0 0.0 0.00 0.00 0.00 85 1012.6
20260906115747 78 150 0.0 0.0 0.00 0.00 0.00 85 1012.7
20260906115241 78 145 0.0 1.0 0.00 0.00 0.00 85 1012.8
20260906114740 78 154 0.0 0.0 0.00 0.00 0.00 85 1012.6
20260906114236 78 147 0.0 0.0 0.00 0.00 0.00 86 1012.5
20260906113731 78 145 0.0 0.0 0.00 0.00 0.00 86 1012.2
20260906113231 78 143 0.0 0.0 0.00 0.00 0.00 85 1012.4
20260906112730 78 158 0.0 0.0 0.00 0.00 0.00 85 1012.4
20260906112227 78 149 0.0 0.0 0.00 0.00 0.00 85 1012.5
20260906111726 78 147 0.0 0.0 0.00 0.00 0.00 85 1012.3
20260906111221 78 146 0.0 0.0 0.00 0.00 0.00 85 1012.4
20260906110716 78 148 0.0 0.0 0.00 0.00 0.00 85 1012.1
20260906110212 78 147 0.0 0.0 0.00 0.00 0.00 84 1012.2
20260906105711 78 144 0.0 0.0 0.00 0.00 0.00 84 1011.9
20260906105207 78 144 0.0 0.0 0.00 0.00 0.00 84 1012.1
20260906104707 78 143 0.0 0.0 0.00 0.00 0.00 84 1012.1
20260906104206 78 155 0.0 0.0 0.00 0.00 0.00 84 1012.3
20260906103704 78 157 0.0 0.0 0.00 0.00 0.00 83 1012.1
20260906103159 78 156 0.0 0.0 0.00 0.00 0.00 83 1012.2
20260906102655 79 152 0.0 0.0 0.00 0.00 0.00 83 1012.2
20260906102154 79 143 0.0 0.0 0.00 0.00 0.00 83 1012.1
20260906101653 79 139 0.0 0.0 0.00 0.00 0.00 82 1012.1
20260906101148 79 156 0.0 0.0 0.00 0.00 0.00 82 1012.1
20260906100644 79 157 0.0 0.0 0.00 0.00 0.00 82 1011.6
20260906100144 79 144 0.0 0.0 0.00 0.00 0.00 83 1011.9
20260906095639 79 147 0.0 0.0 0.00 0.00 0.00 83 1011.8
20260906095135 79 143 0.0 0.0 0.00 0.00 0.00 82 1011.7
20260906094634 79 143 0.0 0.0 0.00 0.00 0.00 82 1011.7
20260906094130 79 139 0.0 1.0 0.00 0.00 0.00 82 1011.5
20260906093626 79 144 0.0 0.0 0.00 0.00 0.00 82 1011.4
20260906093125 79 150 0.0 0.0 0.00 0.00 0.00 82 1011.4
20260906092620 79 150 0.0 0.0 0.00 0.00 0.00 81 1011.3
20260906092115 80 151 0.0 0.0 0.00 0.00 0.00 81 1011.3
20260906091611 80 156 0.0 1.0 0.00 0.00 0.00 80 1011.3
20260906091108 80 165 0.0 0.0 0.00 0.00 0.00 80 1011.5
20260906090608 80 157 0.0 0.0 0.00 0.00 0.00 80 1011.5
20260906090108 80 144 0.0 0.0 0.00 0.00 0.00 79 1011.5
20260906085607 80 148 0.0 0.0 0.00 0.00 0.00 79 1011.8
20260906085102 81 149 0.0 0.0 0.00 0.00 0.00 78 1011.5
20260906084557 81 147 0.0 1.0 0.00 0.00 0.00 78 1011.3
20260906084055 81 150 0.0 0.0 0.00 0.00 0.00 78 1011.3
20260906083551 81 145 1.0 2.0 0.00 0.00 0.00 78 1011.3
20260906083051 81 155 0.0 0.0 0.00 0.00 0.00 78 1011.2
20260906082546 81 158 0.0 1.0 0.00 0.00 0.00 77 1011.4
20260906082042 81 156 0.0 1.0 0.00 0.00 0.00 77 1011.6
20260906081538 82 149 1.0 2.0 0.00 0.00 0.00 77 1011.5
20260906081033 82 144 1.0 2.0 0.00 0.00 0.00 77 1011.6
20260906080530 82 157 0.0 1.0 0.00 0.00 0.00 77 1011.4
20260906080026 82 138 1.0 1.0 0.00 0.00 0.00 76 1011.5
20260906075525 82 147 2.0 2.0 0.00 0.00 0.00 76 1011.4
20260906075020 82 174 1.0 2.0 0.00 0.00 0.00 76 1011.7
20260906074515 82 159 1.0 1.0 0.00 0.00 0.00 76 1011.4
20260906074013 82 220 1.0 2.0 0.00 0.00 0.00 76 1011.6
20260906073508 82 166 4.0 6.0 0.00 0.00 0.00 76 1011.6
20260906073004 82 157 2.0 2.0 0.00 0.00 0.00 76 1011.5
20260906072459 82 154 1.0 1.0 0.00 0.00 0.00 76 1011.5
20260906071955 83 153 2.0 2.0 0.00 0.00 0.00 76 1011.4
20260906071451 83 160 1.0 1.0 0.00 0.00 0.00 76 1011.5
20260906070946 83 144 0.0 1.0 0.00 0.00 0.00 76 1011.7
20260906070442 83 156 0.0 0.0 0.00 0.00 0.00 76 1011.8
20260906065938 83 169 0.0 1.0 0.00 0.00 0.00 76 1011.7
20260906065437 83 169 1.0 2.0 0.00 0.00 0.00 77 1011.6
20260906064933 83 152 1.0 1.0 0.00 0.00 0.00 77 1011.9
20260906064429 83 156 2.0 2.0 0.00 0.00 0.00 76 1011.8
20260906063924 83 152 1.0 1.0 0.00 0.00 0.00 76 1011.9
20260906063419 84 131 2.0 2.0 0.00 0.00 0.00 75 1011.9
20260906062914 84 126 2.0 3.0 0.00 0.00 0.00 75 1011.9
20260906062414 84 153 0.0 1.0 0.00 0.00 0.00 75 1012.1
20260906061910 84 147 1.0 1.0 0.00 0.00 0.00 74 1012.0
20260906061406 84 174 1.0 1.0 0.00 0.00 0.00 74 1011.9
20260906060906 84 165 1.0 1.0 0.00 0.00 0.00 74 1011.9
20260906060403 84 170 2.0 3.0 0.00 0.00 0.00 74 1011.8
20260906055859 84 142 1.0 2.0 0.00 0.00 0.00 74 1012.0
20260906055355 84 165 0.0 1.0 0.00 0.00 0.00 74 1011.7
20260906054849 84 147 0.0 0.0 0.00 0.00 0.00 73 1012.1
20260906054344 84 150 0.0 0.0 0.00 0.00 0.00 73 1011.9
20260906053841 84 145 0.0 1.0 0.00 0.00 0.00 73 1011.8
20260906053337 85 146 0.0 0.0 0.00 0.00 0.00 73 1012.0
20260906052832 85 158 1.0 2.0 0.00 0.00 0.00 72 1012.0
20260906052328 85 159 1.0 1.0 0.00 0.00 0.00 72 1011.8
20260906051825 85 158 1.0 1.0 0.00 0.00 0.00 72 1011.7
20260906051324 85 165 2.0 2.0 0.00 0.00 0.00 72 1011.9
20260906050820 85 152 0.0 0.0 0.00 0.00 0.00 72 1011.9
20260906050315 85 165 1.0 1.0 0.00 0.00 0.00 72 1011.4
20260906045814 85 138 3.0 3.0 0.00 0.00 0.00 71 1011.8
20260906045308 85 154 1.0 1.0 0.00 0.00 0.00 71 1011.9
20260906044805 85 149 1.0 2.0 0.00 0.00 0.00 71 1011.9
20260906044259 86 144 0.0 1.0 0.00 0.00 0.00 70 1011.8
20260906043755 86 149 2.0 3.0 0.00 0.00 0.00 70 1011.8
20260906043251 86 146 1.0 2.0 0.00 0.00 0.00 69 1011.8
20260906042750 86 145 1.0 1.0 0.00 0.00 0.00 69 1011.6
20260906042250 86 156 1.0 2.0 0.00 0.00 0.00 68 1011.7
20260906041745 86 142 1.0 1.0 0.00 0.00 0.00 68 1011.8
20260906041241 86 155 0.0 0.0 0.00 0.00 0.00 67 1011.7
20260906040736 86 148 2.0 2.0 0.00 0.00 0.00 67 1011.6
20260906040231 86 147 1.0 1.0 0.00 0.00 0.00 67 1011.7
20260906035726 86 192 3.0 3.0 0.00 0.00 0.00 67 1011.7
20260906035222 87 139 1.0 1.0 0.00 0.00 0.00 66 1011.7
20260906034722 87 141 2.0 2.0 0.00 0.00 0.00 66 1011.7
20260906034217 87 158 1.0 1.0 0.00 0.00 0.00 65 1011.8
20260906033713 87 106 1.0 2.0 0.00 0.00 0.00 65 1011.6
20260906033212 87 136 4.0 5.0 0.00 0.00 0.00 65 1011.7
20260906032710 87 210 1.0 2.0 0.00 0.00 0.00 65 1011.7
20260906032209 87 146 3.0 3.0 0.00 0.00 0.00 64 1011.9
20260906031704 87 140 2.0 2.0 0.00 0.00 0.00 64 1011.9
20260906031159 87 109 3.0 3.0 0.00 0.00 0.00 63 1011.9
20260906030659 87 189 4.0 6.0 0.00 0.00 0.00 63 1012.0
20260906030155 88 126 2.0 2.0 0.00 0.00 0.00 63 1011.9
20260906025654 88 155 1.0 1.0 0.00 0.00 0.00 63 1011.6
20260906025154 88 125 2.0 3.0 0.00 0.00 0.00 62 1011.7
20260906024648 88 101 6.0 8.0 0.00 0.00 0.00 62 1011.6
20260906024147 88 162 6.0 8.0 0.00 0.00 0.00 62 1011.5
20260906023643 88 123 2.0 3.0 0.00 0.00 0.00 62 1011.4
20260906023143 88 123 0.0 1.0 0.00 0.00 0.00 62 1011.3
20260906022638 88 117 2.0 3.0 0.00 0.00 0.00 63 1011.4
20260906022134 88 117 1.0 1.0 0.00 0.00 0.00 62 1011.3
20260906021630 88 107 2.0 2.0 0.00 0.00 0.00 62 1011.3
20260906021128 88 134 1.0 1.0 0.00 0.00 0.00 62 1011.0
20260906020629 88 151 1.0 2.0 0.00 0.00 0.00 62 1011.1
20260906020124 88 114 7.0 10.0 0.00 0.00 0.00 61 1010.9
20260906015618 89 145 2.0 3.0 0.00 0.00 0.00 61 1011.1
20260906015116 89 158 1.0 1.0 0.00 0.00 0.00 60 1010.7
20260906014611 89 176 4.0 5.0 0.00 0.00 0.00 60 1010.8
20260906014108 89 147 4.0 6.0 0.00 0.00 0.00 59 1010.4
20260906013603 89 164 2.0 5.0 0.00 0.00 0.00 59 1010.4
20260906013059 89 105 2.0 3.0 0.00 0.00 0.00 59 1010.4
20260906012559 90 143 4.0 5.0 0.00 0.00 0.00 58 1010.4
20260906012059 90 168 3.0 6.0 0.00 0.00 0.00 58 1010.2
20260906011555 90 179 6.0 9.0 0.00 0.00 0.00 57 1010.4
20260906011055 90 210 4.0 5.0 0.00 0.00 0.00 57 1010.2
20260906010550 91 149 4.0 7.0 0.00 0.00 0.00 57 1010.3
20260906010046 91 123 8.0 10.0 0.00 0.00 0.00 56 1010.2
20260906005545 92 188 0.0 1.0 0.00 0.00 0.00 55 1010.2
20260906005044 92 179 7.0 11.0 0.00 0.00 0.00 54 1010.0
20260906004544 93 81 5.0 7.0 0.00 0.00 0.00 53 1010.2
20260906004039 94 147 5.0 7.0 0.00 0.00 0.00 51 1010.0
20260906003534 96 88 7.0 13.0 0.00 0.00 0.00 45 1009.8
20260906003030 96 157 2.0 2.0 0.00 0.00 0.00 43 1009.9
20260906002525 96 123 2.0 2.0 0.00 0.00 0.00 43 1009.9
20260906002020 96 112 4.0 5.0 0.00 0.00 0.00 43 1009.8
20260906001516 97 134 3.0 3.0 0.00 0.00 0.00 42 1009.9
20260906001015 97 111 5.0 7.0 0.00 0.00 0.00 41 1009.7
20260906000511 97 132 0.0 0.0 0.00 0.00 0.00 41 1009.9
20260906000006 97 148 0.0 0.0 0.00 0.00 0.00 41 1010.0
20260905235506 98 179 2.0 2.0 0.00 0.00 0.00 40 1009.6
20260905235001 98 173 2.0 3.0 0.00 0.00 0.00 40 1009.5
20260905234456 98 139 3.0 5.0 0.00 0.00 0.00 40 1009.6
20260905233956 99 107 2.0 3.0 0.00 0.00 0.00 39 1009.7